This demonstration page uses our WeatherBlox Daily Observations layout. Learn more.

Left ArrowRight Arrow

Hourly Observations for February 1, 2022

Temp ( °F °C ) Dew Point ( °F °C ) Humidity (%) Winds ( mph kmh ) Pressure ( in mb ) Visibility ( mi km ) Precip ( " mm )
12:15 am 00:15 Partly Cloudy 32 0.2 23 -4.8 69 69 SSE 9 15 30.14 1021 10 16 0.00 0.00
12:35 am 00:35 Clear 32 0 23 -4.8 70 70 SSE 9 15 30.14 1021 10 16 0.00 0.00
12:55 am 00:55 Clear 32 0 23 -4.8 70 70 SSE 9 15 30.13 1020 10 16 0.00 0.00
1:15 am 01:15 Clear 32 0 24 -4.7 71 71 SSE 10 17 30.13 1020 10 16 0.00 0.00
1:35 am 01:35 Clear 32 0 24 -4.7 71 71 SSE 8 13 30.13 1020 10 16 0.00 0.00
1:55 am 01:55 Clear 32 0 24 -4.6 71 71 SSE 10 17 30.13 1020 10 16 0.00 0.00
2:15 am 02:15 Clear 32 0.1 24 -4.5 72 72 SSE 12 19 30.13 1020 10 16 0.00 0.00
2:35 am 02:35 Clear 32 0 24 -4.6 71 71 SSE 10 17 30.13 1020 10 16 0.00 0.00
2:55 am 02:55 Clear 32 0 24 -4.6 71 71 SSE 12 19 30.12 1020 10 16 0.00 0.00
3:15 am 03:15 Clear 32 0 24 -4.5 72 72 SSE 13 20 30.12 1020 10 16 0.00 0.00
3:35 am 03:35 Clear 32 0 24 -4.5 72 72 SSE 12 19 30.11 1020 10 16 0.00 0.00
3:55 am 03:55 Clear 32 0 24 -4.5 72 72 SSE 12 19 30.11 1020 10 16 0.00 0.00
4:15 am 04:15 Clear 32 0 24 -4.6 71 71 SSE 10 17 30.11 1020 10 16 0.00 0.00
4:35 am 04:35 Clear 32 -0.1 24 -4.6 72 72 SSE 9 15 30.10 1019 10 16 0.00 0.00
4:55 am 04:55 Clear 31 -0.3 24 -4.6 73 73 SSE 9 15 30.10 1019 10 16 0.00 0.00
5:15 am 05:15 Clear 32 -0.2 24 -4.6 73 73 SSE 10 17 30.10 1019 10 16 0.00 0.00
5:35 am 05:35 Clear 31 -0.6 23 -4.8 74 74 SSE 9 15 30.11 1020 10 16 0.00 0.00
5:55 am 05:55 Clear 32 0 24 -4.7 71 71 SSE 10 17 30.11 1020 10 16 0.00 0.00
6:15 am 06:15 Clear 31 -0.6 23 -4.8 74 74 SSE 9 15 30.11 1020 10 16 0.00 0.00
6:35 am 06:35 Clear 31 -0.5 23 -4.8 73 73 SSE 9 15 30.11 1020 10 16 0.00 0.00
6:55 am 06:55 Clear 32 -0.1 24 -4.7 71 71 SSE 12 19 30.10 1019 10 16 0.00 0.00
7:15 am 07:15 Clear 32 0 24 -4.7 71 71 SSE 10 17 30.10 1019 10 16 0.00 0.00
7:35 am 07:35 Clear 32 0 24 -4.7 71 71 SSE 10 17 30.10 1019 10 16 0.00 0.00
7:55 am 07:55 Sunny 32 -0.2 23 -4.8 71 71 SSE 9 15 30.11 1020 10 16 0.00 0.00
8:15 am 08:15 Sunny 31 -0.5 24 -4.7 74 74 SSE 9 15 30.11 1020 10 16 0.00 0.00
8:35 am 08:35 Sunny 32 0 24 -4.6 71 71 SSE 9 15 30.11 1020 10 16 0.00 0.00
8:55 am 08:55 Sunny 34 1.1 24 -4.4 67 67 S 12 19 30.10 1019 10 16 0.00 0.00
9:15 am 09:15 Partly Cloudy 35 1.9 24 -4.2 64 64 S 13 20 30.10 1019 10 16 0.00 0.00
9:35 am 09:35 Partly Cloudy 37 2.5 24 -4.3 61 61 S 14 22 30.10 1019 10 16 0.00 0.00
9:55 am 09:55 Sunny 38 3.2 25 -4.1 59 59 S 13 20 30.10 1019 10 16 0.00 0.00
10:15 am 10:15 Sunny 40 4.5 25 -3.7 56 56 S 15 24 30.08 1019 10 16 0.00 0.00
10:35 am 10:35 Sunny 42 5.4 26 -3.4 53 53 S 15 24 30.08 1019 10 16 0.00 0.00
10:55 am 10:55 Sunny 43 6.2 26 -3.2 51 51 S 15 24 30.07 1018 10 16 0.00 0.00
11:15 am 11:15 Partly Cloudy 44 6.7 27 -2.9 51 51 S 14 22 30.08 1019 10 16 0.00 0.00
11:35 am 11:35 Partly Cloudy 46 8 28 -2.1 49 49 S 13 20 30.07 1018 10 16 0.00 0.00
11:55 am 11:55 Mostly Cloudy 48 8.8 29 -1.9 47 47 S 12 19 30.07 1018 10 16 0.00 0.00
12:15 pm 12:15 Cloudy 47 8.2 29 -1.7 50 50 S 10 17 30.06 1018 10 16 0.00 0.00
12:35 pm 12:35 Cloudy 48 9 30 -1 50 50 S 10 17 30.05 1018 10 16 0.00 0.00
12:55 pm 12:55 Cloudy 50 10 30 -0.9 47 47 S 13 20 30.04 1017 10 16 0.00 0.00
1:15 pm 13:15 Cloudy 50 9.9 31 -0.5 49 49 S 9 15 30.04 1017 10 16 0.00 0.00
1:35 pm 13:35 Cloudy 52 11 32 0.1 47 47 S 9 15 30.03 1017 10 16 0.00 0.00
1:55 pm 13:55 Mostly Cloudy 54 12 33 0.6 46 46 S 14 22 30.01 1016 10 16 0.00 0.00
2:15 pm 14:15 Partly Cloudy 55 12.8 34 1 45 45 SSW 15 24 30.00 1016 10 16 0.00 0.00
2:35 pm 14:35 Sunny 56 13.6 34 1.3 43 43 SSW 16 26 30.00 1016 10 16 0.00 0.00
2:55 pm 14:55 Mostly Cloudy 56 13.4 35 1.9 46 46 SSW 20 31 29.99 1016 10 16 0.00 0.00
3:15 pm 15:15 Cloudy 56 13.5 35 1.9 46 46 SSW 22 35 29.99 1016 10 16 0.00 0.00
3:35 pm 15:35 Mostly Cloudy 56 13.5 36 2.1 46 46 SSW 20 31 29.99 1016 10 16 0.00 0.00
3:55 pm 15:55 Partly Cloudy 56 13.2 36 2.1 47 47 SSW 20 31 29.98 1015 10 16 0.00 0.00
4:15 pm 16:15 Mostly Cloudy 55 12.8 35 1.9 48 48 SSW 17 28 29.98 1015 10 16 0.00 0.00
4:35 pm 16:35 Mostly Cloudy 55 13 35 1.8 47 47 SSW 21 33 29.99 1016 10 16 0.00 0.00
4:55 pm 16:55 Mostly Cloudy 55 13 35 1.9 47 47 SSW 16 26 29.99 1016 10 16 0.00 0.00
5:15 pm 17:15 Cloudy 55 12.6 35 1.8 48 48 SSW 16 26 29.99 1016 10 16 0.00 0.00
5:35 pm 17:35 Cloudy 54 12.4 35 1.8 49 49 SSW 12 19 30.00 1016 10 16 0.00 0.00
5:55 pm 17:55 Cloudy 53 11.9 36 2 51 51 SSW 10 17 30.00 1016 10 16 0.00 0.00
6:15 pm 18:15 Cloudy 53 11.4 36 2.1 53 53 SSW 8 13 30.01 1016 10 16 0.00 0.00
6:35 pm 18:35 Cloudy 51 10.8 36 2 55 55 S 8 13 30.01 1016 10 16 0.00 0.00
6:55 pm 18:55 Cloudy 50 10.2 36 2 57 57 S 7 11 30.01 1016 10 16 0.00 0.00
7:15 pm 19:15 Cloudy 49 9.5 35 1.8 59 59 S 7 11 30.02 1017 10 16 0.00 0.00
7:35 pm 19:35 Cloudy 49 9.7 35 1.9 59 59 S 8 13 30.02 1017 10 16 0.00 0.00
7:55 pm 19:55 Cloudy 50 9.8 35 1.9 58 58 S 8 13 30.02 1017 10 16 0.00 0.00
8:15 pm 20:15 Cloudy 51 10.5 36 2 56 56 S 9 15 30.02 1017 10 16 0.00 0.00
8:35 pm 20:35 Cloudy 51 10.4 35 1.8 56 56 S 10 17 30.02 1017 10 16 0.00 0.00
8:55 pm 20:55 Cloudy 51 10.5 35 1.6 54 54 S 10 17 30.02 1017 10 16 0.00 0.00
9:15 pm 21:15 Mostly Cloudy 50 9.8 34 1.3 56 56 S 9 15 30.02 1017 10 16 0.00 0.00
9:35 pm 21:35 Mostly Cloudy 48 9 34 1.2 58 58 S 9 15 30.02 1017 10 16 0.00 0.00
9:55 pm 21:55 Cloudy 49 9.4 34 1.1 56 56 S 9 15 30.01 1016 10 16 0.00 0.00
10:15 pm 22:15 Cloudy 49 9.7 34 1 55 55 S 9 15 30.01 1016 10 16 0.00 0.00
10:35 pm 22:35 Cloudy 49 9.7 34 0.9 55 55 S 7 11 30.02 1017 10 16 0.00 0.00
10:55 pm 22:55 Cloudy 49 9.3 33 0.8 56 56 SW 5 7 30.02 1017 10 16 0.00 0.00
11:15 pm 23:15 Cloudy 48 9.1 34 0.9 57 57 W 6 9 30.03 1017 10 16 0.00 0.00
11:35 pm 23:35 Cloudy with Light Rain 46 7.6 36 2.2 69 69 NW 3 6 30.04 1017 10 16 0.00 0.00
11:55 pm 23:55 Cloudy with Drizzle 43 5.9 37 3 82 82 NNE 7 11 30.04 1017 10 16 0.00 0.00

Powered by AerisWeather